TimeCDT,TemperatureF,Dew PointF,Humidity,Sea Level PressureIn,VisibilityMPH,Wind Direction,Wind SpeedMPH,Gust SpeedMPH,PrecipitationIn,Events,Conditions,WindDirDegrees,DateUTC
12:15 AM,62.6,55.4,77,29.90,10.0,Calm,Calm,-,N/A,,Clear,0,2013-09-24 05:15:00
12:35 AM,62.6,55.4,77,29.90,10.0,Calm,Calm,-,N/A,,Clear,0,2013-09-24 05:35:00
12:55 AM,62.6,55.4,77,29.90,10.0,Calm,Calm,-,N/A,,Clear,0,2013-09-24 05:55:00
1:15 AM,62.6,55.4,77,29.89,10.0,Calm,Calm,-,N/A,,Clear,0,2013-09-24 06:15:00
1:35 AM,62.6,55.4,77,29.89,10.0,Calm,Calm,-,N/A,,Clear,0,2013-09-24 06:35:00
1:55 AM,62.6,55.4,77,29.90,10.0,Calm,Calm,-,N/A,,Clear,0,2013-09-24 06:55:00
2:15 AM,62.6,55.4,77,29.90,10.0,Calm,Calm,-,N/A,,Clear,0,2013-09-24 07:15:00
2:35 AM,60.8,55.4,82,29.90,10.0,Calm,Calm,-,N/A,,Clear,0,2013-09-24 07:35:00
2:55 AM,59.0,55.4,88,29.90,10.0,Calm,Calm,-,N/A,,Clear,0,2013-09-24 07:55:00
3:15 AM,59.0,55.4,88,29.90,10.0,Calm,Calm,-,N/A,,Clear,0,2013-09-24 08:15:00
3:35 AM,59.0,55.4,88,29.89,10.0,Calm,Calm,-,N/A,,Clear,0,2013-09-24 08:35:00
3:55 AM,59.0,55.4,88,29.89,10.0,Calm,Calm,-,N/A,,Clear,0,2013-09-24 08:55:00
4:35 AM,55.4,53.6,94,29.89,10.0,Calm,Calm,-,N/A,,Clear,0,2013-09-24 09:35:00
4:55 AM,55.4,53.6,94,29.89,10.0,Calm,Calm,-,N/A,,Clear,0,2013-09-24 09:55:00
5:15 AM,55.4,53.6,94,29.89,10.0,Calm,Calm,-,N/A,,Clear,0,2013-09-24 10:15:00
5:35 AM,53.6,53.6,100,29.89,10.0,Calm,Calm,-,N/A,,Clear,0,2013-09-24 10:35:00
5:55 AM,53.6,53.6,100,29.89,10.0,Calm,Calm,-,N/A,,Clear,0,2013-09-24 10:55:00
6:15 AM,53.6,53.6,100,29.89,10.0,Calm,Calm,-,N/A,,Clear,0,2013-09-24 11:15:00
6:35 AM,55.4,53.6,94,29.89,10.0,Calm,Calm,-,N/A,,Clear,0,2013-09-24 11:35:00
6:55 AM,53.6,53.6,100,29.89,10.0,Calm,Calm,-,N/A,,Clear,0,2013-09-24 11:55:00
7:15 AM,53.6,53.6,100,29.89,10.0,Calm,Calm,-,N/A,,Clear,0,2013-09-24 12:15:00
7:35 AM,55.4,53.6,94,29.91,10.0,West,3.5,-,N/A,,Clear,280,2013-09-24 12:35:00
7:55 AM,59.0,55.4,88,29.91,10.0,Calm,Calm,-,N/A,,Clear,0,2013-09-24 12:55:00
8:15 AM,62.6,55.4,77,29.91,10.0,WSW,3.5,-,N/A,,Clear,250,2013-09-24 13:15:00
8:35 AM,64.4,55.4,73,29.91,10.0,West,5.8,-,N/A,,Clear,260,2013-09-24 13:35:00
8:55 AM,64.4,55.4,73,29.91,10.0,WSW,6.9,-,N/A,,Clear,250,2013-09-24 13:55:00
9:15 AM,68.0,55.4,64,29.91,10.0,WSW,5.8,-,N/A,,Clear,240,2013-09-24 14:15:00
9:35 AM,69.8,55.4,60,29.91,10.0,West,9.2,-,N/A,,Clear,260,2013-09-24 14:35:00
9:55 AM,69.8,53.6,56,29.91,10.0,West,5.8,-,N/A,,Clear,260,2013-09-24 14:55:00
10:15 AM,71.6,53.6,53,29.91,10.0,West,10.4,-,N/A,,Clear,280,2013-09-24 15:15:00
10:35 AM,71.6,53.6,53,29.92,10.0,WNW,9.2,-,N/A,,Clear,290,2013-09-24 15:35:00
10:55 AM,71.6,53.6,53,29.92,10.0,West,12.7,16.1,N/A,,Clear,280,2013-09-24 15:55:00
11:15 AM,71.6,53.6,53,29.92,10.0,WNW,9.2,-,N/A,,Clear,290,2013-09-24 16:15:00
11:35 AM,71.6,53.6,53,29.92,10.0,West,9.2,-,N/A,,Clear,270,2013-09-24 16:35:00
11:55 AM,71.6,53.6,53,29.91,10.0,West,9.2,-,N/A,,Clear,260,2013-09-24 16:55:00
12:15 PM,73.4,53.6,50,29.91,10.0,WNW,10.4,-,N/A,,Clear,290,2013-09-24 17:15:00
12:55 PM,77.0,53.6,44,29.90,10.0,West,11.5,-,N/A,,Clear,280,2013-09-24 17:55:00
1:15 PM,77.0,53.6,44,29.90,10.0,WNW,9.2,-,N/A,,Clear,290,2013-09-24 18:15:00
1:35 PM,77.0,53.6,44,29.90,10.0,WNW,8.1,-,N/A,,Clear,290,2013-09-24 18:35:00
1:55 PM,77.0,53.6,44,29.89,10.0,WNW,12.7,18.4,N/A,,Clear,300,2013-09-24 18:55:00
2:15 PM,77.0,53.6,44,29.89,10.0,WNW,13.8,17.3,N/A,,Clear,290,2013-09-24 19:15:00
2:35 PM,78.8,53.6,42,29.89,10.0,WNW,10.4,17.3,N/A,,Clear,290,2013-09-24 19:35:00
2:55 PM,78.8,53.6,42,29.88,10.0,NW,12.7,21.9,N/A,,Clear,310,2013-09-24 19:55:00
3:15 PM,78.8,53.6,42,29.89,10.0,West,11.5,-,N/A,,Clear,280,2013-09-24 20:15:00
3:35 PM,78.8,53.6,42,29.88,10.0,NW,12.7,24.2,N/A,,Clear,320,2013-09-24 20:35:00
3:55 PM,78.8,55.4,44,29.87,10.0,West,15.0,18.4,N/A,,Clear,280,2013-09-24 20:55:00
4:15 PM,78.8,53.6,42,29.87,10.0,WNW,11.5,-,N/A,,Clear,290,2013-09-24 21:15:00
4:35 PM,78.8,55.4,44,29.87,10.0,WNW,10.4,18.4,N/A,,Clear,300,2013-09-24 21:35:00
4:55 PM,78.8,55.4,44,29.87,10.0,WNW,9.2,16.1,N/A,,Scattered Clouds,300,2013-09-24 21:55:00
5:15 PM,77.0,55.4,47,29.87,10.0,NW,11.5,-,N/A,,Scattered Clouds,310,2013-09-24 22:15:00
5:35 PM,77.0,55.4,47,29.88,10.0,NW,11.5,-,N/A,,Scattered Clouds,310,2013-09-24 22:35:00
5:55 PM,77.0,55.4,47,29.88,10.0,NW,13.8,17.3,N/A,,Mostly Cloudy,320,2013-09-24 22:55:00
6:15 PM,73.4,55.4,53,29.88,10.0,NNW,8.1,-,N/A,,Mostly Cloudy,330,2013-09-24 23:15:00
6:35 PM,73.4,57.2,57,29.87,10.0,NNW,6.9,-,N/A,,Mostly Cloudy,340,2013-09-24 23:35:00
6:55 PM,71.6,55.4,57,29.87,10.0,NNW,4.6,-,N/A,,Scattered Clouds,330,2013-09-24 23:55:00
7:15 PM,69.8,55.4,60,29.87,10.0,NW,3.5,-,N/A,,Clear,320,2013-09-25 00:15:00
7:35 PM,68.0,55.4,64,29.87,10.0,Calm,Calm,-,N/A,,Clear,0,2013-09-25 00:35:00
7:55 PM,64.4,55.4,73,29.87,10.0,Calm,Calm,-,N/A,,Clear,0,2013-09-25 00:55:00
8:15 PM,62.6,55.4,77,29.88,10.0,Calm,Calm,-,N/A,,Clear,0,2013-09-25 01:15:00
8:35 PM,62.6,57.2,82,29.88,10.0,Calm,Calm,-,N/A,,Clear,0,2013-09-25 01:35:00
8:55 PM,60.8,55.4,82,29.89,10.0,Calm,Calm,-,N/A,,Clear,0,2013-09-25 01:55:00
9:15 PM,59.0,55.4,88,29.89,10.0,Calm,Calm,-,N/A,,Clear,0,2013-09-25 02:15:00
9:35 PM,59.0,55.4,88,29.89,10.0,Calm,Calm,-,N/A,,Clear,0,2013-09-25 02:35:00
9:55 PM,59.0,55.4,88,29.89,10.0,Calm,Calm,-,N/A,,Clear,0,2013-09-25 02:55:00
10:15 PM,59.0,55.4,88,29.89,10.0,Calm,Calm,-,N/A,,Clear,0,2013-09-25 03:15:00
10:35 PM,59.0,55.4,88,29.89,10.0,Calm,Calm,-,N/A,,Clear,0,2013-09-25 03:35:00
10:55 PM,57.2,55.4,94,29.89,10.0,Calm,Calm,-,N/A,,Clear,0,2013-09-25 03:55:00
11:15 PM,57.2,55.4,94,29.89,10.0,Calm,Calm,-,N/A,,Clear,0,2013-09-25 04:15:00
11:35 PM,57.2,55.4,94,29.90,10.0,Calm,Calm,-,N/A,,Clear,0,2013-09-25 04:35:00
11:55 PM,55.4,55.4,100,29.90,10.0,Calm,Calm,-,N/A,,Clear,0,2013-09-25 04:55:00